Regional Weather Roundup
Issued by NWS

Current Version | Previous Version | Text Only | Print | Product List | Glossary Off
Versions: 1 2 3 4 5 6 7 8 9 10 11 12 13 14 15 16 17 18 19 20 21 22 23 24 25 26 27

000
ASUS44 KBMX 060410
RWRAL

ALABAMA REGIONAL WEATHER ROUNDUP
NATIONAL WEATHER SERVICE BIRMINGHAM AL
1100 PM CDT THU MAY 05 2016

NOTE: "FAIR" INDICATES FEW OR NO CLOUDS BELOW 12,000 FEET
WITH NO SIGNIFICANT WEATHER AND/OR OBSTRUCTIONS TO VISIBILITY.

THE REMARK "TC" DENOTES TEMPERATURE IN DEGREES CELSIUS.

ALZ001>011-014-016>018-020-060500-
NORTH ALABAMA

CITY           SKY/WX    TMP DP  RH WIND       PRES   REMARKS
MUSCLE SHOALS  CLEAR     53  40  61 NW5       30.00S
HUNTSVILLE     CLEAR     51  40  65 NW7       29.97S
DECATUR        CLEAR     50  41  71 NW8       29.98S
HALEYVILLE     FAIR      49  40  71 N6        30.00R
GADSDEN        CLEAR     48  41  76 CALM      29.95S
$$

ALZ012-013-022-023-030>036-040>044-060500-
WEST CENTRAL ALABAMA

CITY           SKY/WX    TMP DP  RH WIND       PRES   REMARKS
TUSCALOOSA     CLEAR     57  42  57 N12       29.96R
$$

ALZ015-024>027-033>036-040>044-060500-
CENTRAL ALABAMA

CITY           SKY/WX    TMP DP  RH WIND       PRES   REMARKS
BIRMINGHAM     CLEAR     54  40  59 N10       29.97R
MONTGOMERY     CLEAR     59  42  53 N7        29.91R
SHELBY CO ARPT CLEAR     58  40  51 N10       29.95R
MAXWELL AFB    CLEAR     60  43  53 N7        29.91R
GREENVILLE     NOT AVBL
$$

ALZ019-021-028-029-037-038-045>048-060500-
EAST CENTRAL ALABAMA

CITY           SKY/WX    TMP DP  RH WIND       PRES   REMARKS
ANNISTON       CLEAR     53  38  56 N5        29.94R
ALEXANDER CITY CLEAR     55  44  67 N3        29.93R
AUBURN         CLEAR     54  39  57 N9        29.92R
$$

ALZ051>064-060500-
SOUTHWEST ALABAMA

CITY           SKY/WX    TMP DP  RH WIND       PRES   REMARKS
MOBILE         CLEAR     60  46  59 NW5       29.95R
BROOKLEY FIELD CLEAR     64  43  46 NW8       29.95R
EVERGREEN      CLEAR     52  46  80 NW3       29.92R
$$

ALZ049-050-065>069-060500-
SOUTHEAST ALABAMA

CITY           SKY/WX    TMP DP  RH WIND       PRES   REMARKS
DOTHAN         PTCLDY    58  42  55 NW7       29.91R
OZARK          CLEAR     59  43  56 NW7       29.88R
TROY           CLEAR     54  47  77 N3        29.90R
EUFAULA        FAIR      58  42  55 NW5       29.88R
$$




USA.gov is the U.S. government's official web portal to all federal, state and local government web resources and services.